Location: Casilda
(33.0440°S, 61.1680°W)
Time: 01:28:20
(UTC-03:00)

ISS - Pass Details

Date: 10 May 2021
Orbit: 417 x 422 km, 51.6° (Epoch: 12 May)

Event Time Altitude Azimuth Distance (km) Brightness Sun altitude
Rises 18:53:50 0° 228° (SW) 2,391 0.6 -8.2°
Reaches altitude 10° 18:55:57 10° 229° (SW) 1,519 -0.5 -8.6°
Maximum altitude 18:59:22 78° 315° (NW) 436 -3.6 -9.3°
Drops below altitude 10° 19:02:44 10° 41° (NE) 1,499 -1.2 -10.0°
Sets 19:04:49 0° 42° (NE) 2,356 -0.2 -10.4°
